Cloud_Cover
0 0 0 0 5 3 5 5 6 4 4 0 1 5 5 11 80 100 100 100 100 99 100 100 100 100 100 100 100 100 100 100 100 100 100 100 100 100 100 100 100 100 100
0 0 1 4 8 54 5 5 5 5 7 0 1 5 90 35 100 100 98 100 100 100 100 100 100 100 100 100 100 100 100 100 100 100 100 100 100 100 100 100 100 100 100
0 0 3 0 5 72 19 5 5 5 56 93 61 7 100 98 100 100 100 100 100 100 100 100 100 100 100 100 100 100 100 100 100 100 100 100 100 100 100 100 100 100 100
0 0 1 5 0 40 34 5 6 5 6 46 100 94 80 100 100 100 100 100 100 100 100 100 100 100 100 100 100 100 100 100 100 100 100 100 100 100 100 100 100 100 100
0 0 3 0 0 6 52 5 5 5 26 14 19 100 59 100 92 98 100 100 100 100 100 100 100 100 99 100 94 100 100 100 100 100 100 100 100 100 100 100 100 100 100
0 0 4 1 5 5 5 5 5 5 54 99 61 38 15 25 100 98 100 100 100 100 100 100 100 100 100 94 98 100 100 100 100 100 100 100 100 100 100 100 100 100 100
0 0 0 4 0 2 5 5 5 26 88 100 68 56 35 15 100 100 100 100 100 94 94 100 100 100 93 98 100 100 100 100 100 100 100 100 100 100 100 100 100 100 100
0 1 2 0 0 4 0 5 5 5 78 88 100 49 38 26 100 100 100 100 100 100 100 98 98 100 100 100 90 93 100 100 100 100 100 100 100 100 100 100 100 100 100
0 1 1 0 0 0 0 4 5 46 73 100 100 98 86 51 100 100 100 100 100 100 100 100 90 100 100 100 99 99 98 100 100 100 100 100 100 100 100 95 92 70 79
0 0 2 0 0 0 0 2 5 50 100 100 57 99 100 87 100 100 100 100 100 100 100 100 100 100 100 100 100 100 100 100 100 100 100 100 100 100 100 100 100 100 100
0 0 0 0 0 0 0 0 1 42 20 96 94 68 100 100 100 100 100 100 100 100 100 100 100 100 100 100 100 100 100 100 100 100 100 100 100 100 100 100 100 100 100
0 0 0 0 0 0 0 0 0 24 99 98 25 55 96 100 98 100 100 100 100 100 100 100 100 100 100 100 100 100 100 100 100 100 100 100 97 49 99 100 100 100 100
0 0 0 0 0 0 0 0 0 3 81 94 98 96 100 98 97 100 100 91 100 100 100 100 100 100 97 93 96 79 100 100 100 100 9 5 52 57 27 44 49 74 96
0 0 0 0 0 0 0 0 0 0 0 5 74 99 37 60 57 14 90 100 100 100 100 89 31 63 73 85 100 100 69 56 7 6 30 70 37 44 65 31 47 95 100
0 0 0 0 0 0 0 0 0 0 0 0 0 3 5 38 35 75 86 95 85 67 84 100 100 98 79 35 40 20 71 62 42 69 75 34 59 94 100 100 100 90 45
0 0 0 0 0 0 0 0 40 0 0 0 0 0 0 0 0 2 5 5 5 6 16 55 98 100 100 100 100 100 100 100 100 100 100 100 100 68 21 4 29 8 5
0 0 0 0 0 0 0 0 0 10 6 0 0 0 0 0 0 0 0 0 0 2 0 0 2 5 14 42 43 58 59 69 4 5 5 5 5 5 5 16 36 66 86
0 0 0 0 0 0 0 0 0 0 0 0 44 17 33 0 0 0 0 0 2 24 0 0 0 0 5 5 4 5 5 5 5 5 5 6 22 41 54 70 90 91 100
0 1 4 0 0 0 0 0 0 0 0 0 0 28 12 1 0 0 0 0 0 0 0 0 0 2 3 5 5 5 5 27 48 25 9 7 10 96 100 94 46 96 98
5 5 5 3 2 2 0 0 0 0 0 0 0 0 0 1 0 0 0 0 0 0 0 2 5 5 5 5 5 5 5 7 25 69 92 76 92 51 77 93 100 100 100
5 4 5 5 5 5 3 0 0 0 0 0 0 0 0 0 0 0 0 0 0 0 0 0 0 0 0 0 5 5 5 5 5 6 11 84 100 100 99 100 100 100 100
2 40 16 5 5 5 5 5 4 0 0 0 0 0 0 0 0 0 0 0 0 0 0 0 0 0 0 3 3 5 5 5 5 50 74 84 96 98 76 57 92 98 100
4 12 98 43 24 38 28 5 5 4 5 2 5 5 3 3 4 2 5 4 4 5 0 1 3 5 5 5 5 5 4 5 5 5 29 86 97 63 65 47 93 100 100
10 30 33 47 99 69 80 82 44 36 19 5 5 5 5 15 7 5 5 5 5 3 0 1 5 5 5 5 5 5 5 5 5 22 67 55 99 100 96 82 94 98 100
36 73 26 88 100 97 95 92 100 76 67 26 5 5 5 13 24 5 7 6 6 5 4 5 3 4 5 1 0 21 51 32 5 5 5 5 70 100 100 100 100 91 100
72 77 100 100 100 100 79 95 92 72 60 100 88 93 62 48 26 43 97 43 32 45 1 1 2 4 4 3 5 9 27 5 5 20 5 47 18 31 85 100 100 100 100